Regional Weather Roundup
Issued by NWS

Home | Current Version | Previous Version | Text Only | Print | Product List | Glossary On
Versions: 1 2 3 4 5 6 7 8 9 10 11 12 13 14 15 16 17 18 19 20 21 22 23 24 25 26 27 28 29 30 31 32 33 34 35 36 37 38 39 40 41 42 43 44 45 46 47 48 49 50
000
ASHW40 PHFO 221912
RWRHI

WEATHER ROUNDUP FOR HAWAII
NATIONAL WEATHER SERVICE HONOLULU HI
900 AM HST THU JUN 22 2017

THIS IS AN AUTOMATED REPORT THAT HAS NOT BEEN QUALITY CONTROLLED.

NOTE..."FAIR" INDICATES FEW OR NO CLOUDS BELOW 12,000 FEET WITH NO
SIGNIFICANT WEATHER AND/OR OBSTRUCTIONS TO VISIBILITY.

* - THESE SITES REPORT LIMITED FIELDS

HIZ001>004-222000-
KAUAI-NIIHAU-

CITY           SKY/WX    TMP DP  RH WIND       PRES   REMARKS
LIHUE APT      MOSUNNY   83  68  60 NE13      30.03R
PORT ALLEN*    NOT AVBL
POIPU*           N/A     79 N/A N/A NE7G14      N/A
PRINCEVILLE*     N/A     79 N/A N/A E8G14       N/A
KOKOLE POINT*  NOT AVBL
MOLOAA DAIRY*    N/A     81  70  69 E5G10       N/A
WAIMEA HTS*    NOT AVBL
PUU OPAE*      NOT AVBL
PUU LUA*       NOT AVBL
MAKAHA RIDGE*  NOT AVBL
$$

HIZ005>011-222000-
OAHU-

CITY           SKY/WX    TMP DP  RH WIND       PRES   REMARKS
HONOLULU       MOSUNNY   80  64  58 NE8       29.98S
KALAELOA       SUNNY     84  64  50 E9        30.00R
KANEOHE MCB    MOSUNNY   82  70  66 NE8       29.98R
WHEELER FIELD  FAIR      78  67  68 NE9       29.99S
BELLOWS*       NOT AVBL
KAHUKU*        NOT AVBL
WHEELER*       NOT AVBL
WAIANAE HARBOR NOT AVBL
DILLINGHAM*      N/A     82  70  65 SW5         N/A
KAHUKU TRN*      N/A     82  72  69 W8G16       N/A
KAWAILOA*        N/A     75  66  73 E10G20      N/A
KII*             N/A     81  70  69 E12         N/A
MAKUA RANGE*     N/A     81  63  54 W8G17       N/A
OAHU FOREST NW NOT AVBL
SCHOFIELD BRK*   N/A     79  66  65 MISG        N/A
SCHOFIELD S*   NOT AVBL
WAIANAE VLY*   NOT AVBL
KUAOKALA*      NOT AVBL
HONOULIUULI*   NOT AVBL
MOKUOLOE IS*   NOT AVBL
PALEHUA*       NOT AVBL
WAIAWA PHB*    NOT AVBL
$$

HIZ012>013-222000-
MOLOKAI-

CITY           SKY/WX    TMP DP  RH WIND       PRES   REMARKS
MOLOKAI AIRPT  MOSUNNY   81  68  64 NE15G21   30.01R
KALAUPAPA      NOT AVBL
MAKAPULAPAI*   NOT AVBL
MOLOKAI 1*     NOT AVBL
PUU ALII*      NOT AVBL
$$

HIZ016-222000-
KAHOOLAWE-

CITY           SKY/WX    TMP DP  RH WIND       PRES   REMARKS
KAHOOLAWE*     NOT AVBL
HAKIOAWA*      NOT AVBL
HONOKANAIA*      N/A     83  67  57 N15       29.92R
KANELOA*         N/A     77  64  65 NE15G25   30.04R
KEALIALALO*    NOT AVBL
LUA MAKIKA*    NOT AVBL
$$

HIZ014>015-222000-
LANAI-

CITY           SKY/WX    TMP DP  RH WIND       PRES   REMARKS
LANAI CITY     FAIR      76  66  71 NE13G29   30.04R
LANAI 1*       NOT AVBL
$$

HIZ017>028-222000-
MAUI-

CITY           SKY/WX    TMP DP  RH WIND       PRES   REMARKS
KAHULUI        MOSUNNY   83  68  60 NE15      29.99S
KAPALUA-W MAUI MOSUNNY   81  64  57 NE13      30.00
HANA AIRPORT   MOSUNNY   81  68  65 N2        30.03S
HANA*            N/A     81 N/A N/A N2          N/A
HALEAKALA SUMM   N/A     52  19  28 E21G36      N/A
MAALAEA BAY*   NOT AVBL
HALEAKALA*     NOT AVBL
KAUPO GAP*     NOT AVBL
KULA 1*          N/A     62  44  52 NW2         N/A
$$

HIZ023>026-222000-
BIG ISLAND OF HAWAII COAST AND LOWER SLOPES-

CITY           SKY/WX    TMP DP  RH WIND       PRES   REMARKS
KAILUA KONA    MOSUNNY   83  61  47 S10       29.94S
HILO           CLOUDY    75  69  81 W7        30.00S
HONOKAA*         N/A     75 N/A N/A VRB1        N/A
KAWAIHAE MWT*    N/A     82 N/A N/A NW7         N/A
KAWAIHAE*      NOT AVBL
SOUTH POINT*     N/A     75 N/A N/A N14G24      N/A
UPOLU AIRPORT* NOT AVBL
KAMUELA*       PTCLDY    73  61  64 NE23      30.08S
HAKALAU*         N/A     57  54  89 NE3         N/A
KALOKO-HONOKO* NOT AVBL
PALI 2*          N/A     75  59  57 SW12G18     N/A
KEALAKOMO*       N/A     77  64  65 N15G26      N/A
KAUPULEHU*     NOT AVBL
KAPAPALA*        N/A     75  62  64 S3          N/A
LOWER KAHUKU*  NOT AVBL
PUHE CS*       NOT AVBL
PUHO CS*       NOT AVBL
PTA KEAMUKU*   NOT AVBL
WAIKOLOA*      NOT AVBL
$$

HIZ027>028-222000-
BIG ISLAND OF HAWAII INTERIOR AND SUMMMITS-

CITY           SKY/WX    TMP DP  RH WIND       PRES   REMARKS
BRADSHAW FIELD MOSUNNY   66  38  35 W6        30.28F
MK VISITOR CEN   N/A     59  25  27 NW6         N/A
MAUNA KEA*       N/A     52  -2  11 NE5         N/A
MAUNA LOA*     NOT AVBL
MAUNA LOA 1*   NOT AVBL
PTA KIPUKA*      N/A     68  46  45 NE7G13      N/A
PTA RANGE 17*    N/A    N/A N/A N/A SE2G8       N/A
PTA WEST*        N/A     70  54  56 NW8         N/A
NENE CABIN*    NOT AVBL
AHUMOA*        NOT AVBL
PTA PORTABLE*  NOT AVBL
PUU MALI*        N/A     57  54  88 NE20G26     N/A
$$

HIC003-222000-
NORTHWEST ISLANDS-

CITY           SKY/WX    TMP DP  RH WIND       PRES   REMARKS
MIDWAY ISLAND  CLOUDY    77  66  69 E18       30.13R
MIDWAY NOS*    NOT AVBL
FRENCH FRIGATE NOT AVBL
$$

PHZ110>124-180-222000-
BUOY REPORTS

STATION/POSITION TIME  TEMP    WIND        PRES    WAVE   SWELL
                       AIR SEA DIR/SP/G            HT/PER HT/DIR
                 (UTC) (F)     (DEG/KT/KT) (MB)    (FT/S) (FT/D)
BUOY 51001       1850   78 80   90/ 10/ 12 1017.0R   5/ 8   5/110
BUOY 51101       1850   78 80   80/ 12/ 14 1017.3R   5/15   5/150
BUOY 51100       NOT AVBL
BUOY 51002       1850   78 79   70/ 16/ 19 1014.1R   6/15   5/140
BUOY 51003       1850   80 80   50/ 10/ 12 1014.5R   5/14   5/130
BUOY 51004       1750      79   70/ 10/ 12 1013.8    6/15   7/150
BARBERS PT BUOY  NOT AVBL
WAIMEA BAY BUOY  1802      78                N/A     2/ 8   2/240
KAILUA BAY BUOY  1834      79                N/A     5/ 8   2/150
LANAI BUOY       NOT AVBL
BARBERS PT 2     NOT AVBL
PAUWELA MAUI     1839      79                N/A     4/ 8   2/ 70
HILO             1857      78                N/A     5/ 8   2/130
KANEOHE BAY BUOY 1855      80                N/A     4/ 8
HANALEI KAUAI    1852      80                N/A     4/ 8
KAHULUI HARBOR   1848   77 79   10/  9/ 11 1015.8R
HONOLULU HARBOR  1848   80 80   60/  8/ 11 1016.2R
KILO NALU        NOT AVBL
HILO HARBOR      1848   74 77  270/  7/  9 1015.5F
MOKUOLOE         1836   79 82   70/  8/ 10 1016.0R
NAWILIWILI       1848   79      60/ 10/ 13 1016.3R
WHOTS BUOY       NOT AVBL
BUOY 51028       NOT AVBL
$$

......................KEY........................................
  SKY/WX - SKY CONDITIONS/PRESENT WEATHER
  TMP    - TEMPERATURE IN FAHRENHEIT
  DWPT   - DEWPOINT IN FAHRENHEIT
  RH     - RELATIVE HUMIDITY IN PERCENT
  WIND   - DIRECTION AND SPEED /MPH FOR ISLANDS...KTS FOR BUOYS/
  PRES   - MEAN SEA LEVEL PRESSURE IN INCHES OF HG
  VSB    - VISIBILITY IN MILES
  HX     - HEAT INDEX
  WCI    - WIND CHILL INDEX
  VRB    - VARIABLE WIND DIRECTION
  N/A    - NOT AVAILABLE




USA.gov is the U.S. government's official web portal to all federal, state and local government web resources and services.